Tegucigalpa, Honduras

10:36 AM CST en Abril 25, 2018 (GMT -0600)
Toncontin International

Tiempo Historia de MHTG - Abril, 2018

Change the Weather History Date:

Lunes, Abril 16, 2018

  Actual Average Record
Temperature  
Temperatura media 66 ° F -  
Temperatura máxima 72 ° F 84 ° F 93 ° F (1998)
Temperatura mínima 59 ° F 63 ° F 57 ° F (2003)
Cooling Degree Days 1    
Growing Degree Days 16 (Base 50)    
Moisture  
Punto de rocío 58 ° F    
Average Humidity 78    
Maximum Humidity 94    
Minimum Humidity 51    
Precipitación  
Precipitación 0.00 pul 0.13 pul - ()
Presión al nivel del mar  
Presión al nivel del mar 30.16 pul    
Viento  
Velocidad del viento 12 mph ()    
Velocidad máxima del viento 23 mph    
Max Gust Speed 23 mph    
Visibilidad 5.6 Millas    
Eventos Lluvia    
Averages and records for this station are not official NWS values.
T = Trace of Precipitation, MM = Missing Value Source: Averaged Metar Reports

Daily Weather History Graph

Daily Weather History Graph

Search for Another Location

Airport or City:

Astronomía

Apr. 16, 2018 Salida Puesta
Hora real 5:34 AM CST 6:02 PM CST
Crepúsculo civil 5:13 AM CST 6:24 PM CST
Crepúsculo náutico 4:47 AM CST 6:49 PM CST
Crepúsculo astronómico 4:22 AM CST 7:15 PM CST
Luna 6:09 AM CST (4/16) 6:52 PM CST (4/16)
Horas de luz 13h 11m
Horas de luz
12h 27m
Luna nueva, 1% of the Moon is Illuminated
Abr 16
Luna nueva
Abr 22
Cuarto creciente
Abr 29
Luna llena
May 7
Cuarto menguante
May 15
Nueva

Hourly Weather History & Observations

Hora (CST) Temp. Punto de rocío Humedad Presión Visibilidad Wind Dir Velocidad del viento Velocidad de ráfagas Precip Eventos Condiciones
12:00 AM 67 ° F 62 ° F 77% 30.10 pul 6 mi Norte 16.1 mph - -   Humo
12:00 AM 68.0 ° F 60.8 ° F 78% 30.18 pul 6.2 mi Norte 16.1 mph - N/A   Nubes dispersas
1:00 AM 66.2 ° F 60.8 ° F 83% 30.15 pul 6.2 mi Norte 13.8 mph - N/A   Muy nublado
2:00 AM 66.2 ° F 62.6 ° F 88% 30.15 pul 6.2 mi Norte 15.0 mph - N/A   Muy nublado
3:00 AM 66 ° F 62 ° F 82% 30.06 pul 5 mi Norte 11.5 mph - -   Muy nublado
3:00 AM 66.2 ° F 62.6 ° F 88% 30.15 pul 5.0 mi Norte 11.5 mph - N/A   Muy nublado
4:00 AM 62.6 ° F 60.8 ° F 94% 30.15 pul 4.3 mi Norte 13.8 mph - N/A Lluvia Lluvia débil
5:00 AM 62.6 ° F 60.8 ° F 94% 30.15 pul 3.7 mi Norte 11.5 mph - N/A Lluvia Lluvia débil
6:00 AM 60 ° F 58 ° F 92% 30.14 pul 2 mi NNE 8.1 mph - -  
6:00 AM 60.8 ° F 59.0 ° F 94% 30.18 pul 3.7 mi NNE 8.1 mph - N/A   Muy nublado
7:00 AM 60.8 ° F 57.2 ° F 88% 30.18 pul 5.0 mi Norte 11.5 mph - N/A   Nubes dispersas
8:00 AM 60.8 ° F 57.2 ° F 88% 30.21 pul 5.0 mi Norte 11.5 mph - N/A   Nubes dispersas
8:01 AM 60.8 ° F 57.2 ° F 88% 30.21 pul 5.0 mi Norte 11.5 mph - N/A   Nubes dispersas
9:00 AM 64 ° F 58 ° F 77% 30.16 pul 6 mi Norte 13.8 mph - -   Bruma
9:00 AM 64.4 ° F 59.0 ° F 83% 30.24 pul 6.2 mi Norte 11.5 mph 23.0 mph N/A   Muy nublado
10:00 AM 66.2 ° F 57.2 ° F 73% 30.21 pul 6.2 mi NNE 11.5 mph 23.0 mph N/A   Muy nublado
11:00 AM 68.0 ° F 57.2 ° F 68% 30.21 pul 6.2 mi Norte 11.5 mph 23.0 mph N/A   Nubes dispersas
12:00 PM 69 ° F 57 ° F 56% 30.11 pul 6 mi Norte 16.1 mph - -   Bruma
12:00 PM 68.0 ° F 57.2 ° F 68% 30.21 pul 6.2 mi Norte 16.1 mph - N/A   Nubes dispersas
1:00 PM 68.0 ° F 55.4 ° F 64% 30.18 pul 6.2 mi NNE 11.5 mph - N/A   Nubes dispersas
2:00 PM 68.0 ° F 57.2 ° F 68% 30.15 pul 6.2 mi Norte 11.5 mph 23.0 mph N/A   Nubes dispersas
3:00 PM 72 ° F 58 ° F 51% 30.00 pul 6 mi Norte 23.0 mph - -   Bruma
3:00 PM 71.6 ° F 57.2 ° F 60% 30.12 pul 6.2 mi Norte 11.5 mph 23.0 mph N/A   Nubes dispersas
4:00 PM 69.8 ° F 55.4 ° F 60% 30.12 pul 6.2 mi Norte 11.5 mph 23.0 mph N/A   Nubes dispersas
5:00 PM 64.4 ° F 55.4 ° F 73% 30.15 pul 6.2 mi Norte 11.5 mph 23.0 mph N/A   Nubes dispersas
6:00 PM 61 ° F 55 ° F 76% 30.16 pul 6 mi Norte 23.0 mph - -   Bruma
6:00 PM 64.4 ° F 55.4 ° F 73% 30.15 pul 6.2 mi Norte 11.5 mph 23.0 mph N/A   Nubes dispersas
7:00 PM 60.8 ° F 57.2 ° F 88% 30.18 pul 6.2 mi Norte 11.5 mph 23.0 mph N/A   Nubes dispersas
8:00 PM 62.6 ° F 55.4 ° F 77% 30.18 pul 6.2 mi Norte 20.7 mph - N/A   Muy nublado
9:00 PM 61 ° F 55 ° F 76% 30.16 pul 6 mi Norte 23.0 mph - -   Bruma
10:00 PM 60.8 ° F 55.4 ° F 82% 30.24 pul 5.0 mi Norte 9.2 mph - N/A   Muy nublado
11:00 PM 59.0 ° F 55.4 ° F 88% 30.21 pul 5.0 mi Norte 11.5 mph - N/A   Muy nublado